Location: Bourg-d�Oueil
(42.8588°N, 0.4991°E)
Time: 21:50:12
(UTC+00:00)

NOAA 13 - Visible Passes

Search period start: 22 January 2022 00:00
Search period end: 01 February 2022 00:00
Orbit: 842 x 857 km, 98.5° (Epoch: 22 January)

Date Brightness Start Highest point End Pass type
(mag) Time Alt. Az. Time Alt. Az. Time Alt. Az.
22 Jan 6.8 03:45:29 10° NE 03:49:43 22° E 03:53:57 10° SE visible
22 Jan 4.8 05:25:24 10° N 05:30:43 51° WNW 05:36:01 10° SW visible
23 Jan 7.2 03:33:54 10° NE 03:37:30 17° E 03:41:05 10° SE visible
23 Jan 4.6 05:13:12 10° N 05:18:39 65° WNW 05:24:06 10° SSW visible
24 Jan 7.4 03:22:35 10° ENE 03:25:14 14° E 03:27:52 10° ESE visible
24 Jan 4.5 05:01:03 10° NNE 05:06:34 81° WNW 05:12:05 10° SSW visible
24 Jan 6.3 06:44:08 10° NNW 06:46:24 13° WNW 06:48:42 10° W visible
25 Jan 7.7 03:12:33 10° E 03:12:57 10° E 03:13:21 10° E visible
25 Jan 4.7 04:48:56 10° NNE 04:54:29 80° ESE 05:00:00 10° S visible
25 Jan 6.1 06:31:18 10° NNW 06:34:29 16° WNW 06:37:41 10° W visible
26 Jan 5.0 04:36:52 10° NNE 04:42:21 64° ESE 04:47:49 10° S visible
26 Jan 5.9 06:18:43 10° NNW 06:22:33 20° WNW 06:26:24 10° WSW visible
27 Jan 5.5 04:24:52 10° NNE 04:30:14 50° E 04:35:34 10° S visible
27 Jan 5.7 06:06:16 10° NNW 06:10:36 24° WNW 06:14:56 10° WSW visible
27 Jan 7.9 17:37:00 10° WSW 17:38:49 12° W 17:40:38 10° WNW visible
28 Jan 5.9 04:12:53 10° NNE 04:18:04 39° E 04:23:12 10° SSE visible
28 Jan 5.4 05:53:53 10° N 05:58:37 30° WNW 06:03:19 10° SW visible
29 Jan 6.3 04:01:00 10° NNE 04:05:53 31° E 04:10:44 10° SSE visible
29 Jan 5.2 05:41:35 10° N 05:46:37 37° WNW 05:51:37 10° SW visible
30 Jan 6.7 03:49:12 10° NE 03:53:40 25° E 03:58:08 10° SSE visible
30 Jan 4.9 05:29:19 10° N 05:34:35 47° WNW 05:39:50 10° SW visible
31 Jan 7.0 03:37:31 10° NE 03:41:27 20° E 03:45:21 10° SE visible
31 Jan 4.7 05:17:06 10° N 05:22:32 59° WNW 05:27:56 10° SSW visible
